Погода в Болтинке

Россия / Нижегородская область     55°19′40″N   45°49′58″E
темп.,
°C
ветер,
м/с
пор.,
м/с
влажн.,
%
обл.,
%
осадки,
мм/ч
давл.,
гПа
погр.,
м
11 апреля, вс
вс1100:00+1с24100100 0.0 1026123
03:00+1с37100100 0.0 1027215
06:000с3699100 0.0 1029267
09:00+1с4597100 0.0 1030279
12:00+3с358999 0.0 1031261
15:00+4ссв3487100 0.0 1032222
18:00+3св2290100 0.0 103322
21:00+3всв2288100 0.0 103425
12 апреля, пн
пн1200:00+2св368998 0.0 103488
03:00+2св3987100 0.1 1035189
06:00+2всв41187100 1.0 1036295
09:00+3всв5118965 1.3 1036301
12:00+5в5109098 0.0 1035275
15:00+9в5889100 0.0 1035455
18:00+7в5895100 0.0 1034255
21:00+6вюв4997100 0.0 1034162
13 апреля, вт
вт1300:00+6юв379380 0.0 1033108
03:00+7юв358783 0.0 103258
06:00+7ююв338658 0.0 103239
09:00+12ююв487173 0.0 1032266
12:00+16ю574477 0.0 1030932
15:00+17ю673859 0.0 10291218
18:00+14ююв365516 0.0 1028104
21:00+11ююв366642 0.0 102988
14 апреля, ср
ср1400:00+9ю336788 0.0 102831
03:00+8ю33700 0.0 102817
06:00+7ю22720 0.0 102815
09:00+12ююв34578 0.0 1027230
12:00+17ю4545100 0.0 1026814
15:00+18ююв453967 0.0 10251232
18:00+15ююв33505 0.0 102330
21:00+12ююв22576 0.0 102311
15 апреля, чт
чт1500:00+9ю336429 0.0 102320
03:00+8ю22675 0.0 102211
06:00+7ю22685 0.0 102111
09:00+12ю24535 0.0 1020243
12:00+16ю33395 0.0 10181000
15:00+18ю23335 0.0 10171513
18:00+16ююв11455 0.0 101511
21:00+12юв005629 0.0 101410